Regional Weather Roundup
Issued by NWS Grand Forks, ND

Home | Current Version | Previous Version | Graphics & Text | Print | Product List | Glossary On
Versions: 1 2 3 4 5 6 7 8 9 10 11 12 13 14 15 16 17 18 19 20 21 22 23 24 25 26 27 28 29 30 31 32 33 34 35 36 37 38 39 40 41 42 43 44 45 46 47 48 49 50
000
ASUS43 KFGF 211431
RWRFGF
PRAIRIE TO PINES  WEATHER ROUNDUP
NATIONAL WEATHER SERVICE EASTERN NORTH DAKOTA/GRAND FORKS ND
800 AM CST WED FEB 21 2018

 **SATELLITE DATA USED TO AUGMENT SKY COVER AT AUTOMATED STATIONS**
 *****  WEATHER ACROSS EASTERN NORTH DAKOTA  *****

CITY           SKY/WX    TMP DP  RH WIND       PRES   REMARKS
GRAND FORKS    FAIR      -7 -13  75 SW7       30.42R WCI -21
GRAND FRKS AFB PTCLDY     9  -4  56 W2        30.45R
GRAND FRKS NWS   N/A     -2  -7  78 W5        30.40R WCI -12
DEVILS LAKE    FAIR      -8 -14  74 W13       30.35R WCI -28
FARGO          FAIR      -5 -11  75 S9        30.47R WCI -22
WAHPETON ARPT  FAIR      -9 -17  70 CALM      30.50R
$$

 ***** WEATHER ACROSS CENTRAL AND WESTERN NORTH DAKOTA  *****

CITY           SKY/WX    TMP DP  RH WIND       PRES   REMARKS
BISMARCK       FAIR      -7 -14  71 CALM      30.39R
MINOT          FAIR      -1 -12  59 SW15      30.30R WCI -21
JAMESTOWN      FAIR      -4 -12  68 W7        30.39R WCI -18
MINOT AFB      FAIR      -4 -13  65 W10       30.28R WCI -21
GARRISON         N/A     -7 -15  68 W10       30.32R WCI -25
WILLISTON      FAIR      -9 -15  75 SW6       30.31R WCI -22
DICKINSON      FAIR      -5 -14  65 SW12      30.26R WCI -23
HETTINGER      FAIR     -11 -19  68 S7        30.31R WCI -26
$$

 *****  OTHER AIRPORT OBSERVATIONS IN OUR AREA  *****

CITY           SKY/WX    TMP DP  RH WIND       PRES   REMARKS
WALHALLA       FAIR       1  -8  66 W5        30.35R WCI  -8
GRAFTON AIRPOR FAIR      -2  -9  71 SW9       30.42R WCI -18
VALLEY CITY AR FAIR      -4 -13  65 W12       30.42R WCI -22
CANDO          FAIR      -8 -13  77 SW9       30.35R WCI -25
CAVALIER APRT    N/A      1  -8  66 W9        30.37R WCI -14
GWINNER          N/A     -9 -17  70 SW17      30.45R WCI -33
SHEYENNE NWR     N/A    -11 -18  70 SW7       29.95S WCI -26
ROLLA          FAIR      -9 -15  77 S8        30.27R WCI -26
 ***** THE ABOVE OBSERVATIONS ARE NON NWS ARE NOT QUALITY
       CONTROLLED AND MAY MIS-REPORT RAIN FOR SNOW...
$$

  *****  WEATHER ACROSS NORTHERN MINNESOTA  *****

CITY           SKY/WX    TMP DP  RH WIND       PRES   REMARKS
FLAG ISLAND    FAIR      -2  -9  71 S3        30.30R
WARROAD        FAIR       0  -8  71 SW10      30.34R WCI -17
ROSEAU         FAIR      -2  -8  78 SW12      30.35R WCI -20
HALLOCK        FAIR      -8 -13  77 SE9       30.37R WCI -25
THF RVR FALLS  FAIR      -5 -11  75 SW14      30.39R WCI -25
BAUDETTE       FAIR      -6 -10  83 SW5       30.32R WCI -17
WASKISH        FAIR       0  -8  71 SW12      30.38R WCI -18
CROOKSTON      FAIR      -9 -15  77 S8        30.44R WCI -26
STEPHEN NDAWN    N/A     -2  -9  71 SW8         N/A  WCI -17
GREENBUSH NDAW   N/A     -6  -9  84 SW9         N/A  WCI -22
$$
  *****  WEATHER ACROSS CENTRAL AND WEST MINNESOTA  *****

CITY           SKY/WX    TMP DP  RH WIND       PRES   REMARKS
FOSSTON        FAIR      -8 -13  77 S12       30.40R WCI -27
BEMIDJI        FAIR      -4  -9  79 SW5       30.38R WCI -15
PARK RAPIDS    FAIR      -8 -12  83 SW3       30.39R
ELBOW LAKE     FAIR     -11 -15  82 S5        30.48R WCI -23
WADENA         FAIR      -8 -11  84 SW6       30.43S WCI -21
DETROIT LAKES  FAIR      -6  -9  84 SW6       30.43S WCI -18
MOORHEAD       FAIR      -9 -17  70 S5        30.48R WCI -21
FERGUS FALLS   FAIR      -9 -15  77 S8        30.50R WCI -26
MORRIS MN      FAIR      -6 -11  77 S8        30.49R WCI -21
STAPLES        FAIR      -6  -9  84 S3        30.45R
$$
  *****  WEATHER ELSEWHERE ACROSS MINNESOTA  *****

CITY           SKY/WX    TMP DP  RH WIND       PRES   REMARKS
DULUTH         FAIR      -1  -6  79 W10       30.39R WCI -17
INTRNTL FALLS  FAIR      -7 -10  87 SW7       30.34R WCI -21
ELY            FAIR      -2  -8  78 W5        30.37R WCI -12
CLOQUET        FAIR       1  -6  71 W7        30.41F WCI -11
WHEATON        FAIR      -8 -15  71 S8        30.52R WCI -23
BRAINERD       FAIR      -8 -13  78 S3        30.44R
HIBBING        FAIR     -20 -24  82 CALM      30.39R
ALEXANDRIA     FAIR      -7 -11  83 S7        30.46R WCI -21
SAINT CLOUD    FAIR      -8 -11  86 S5        30.50S WCI -19
MINNEAPOLIS    FAIR       3  -1  83 SW3       30.56R
$$

  *****  WEATHER ACROSS SOUTH DAKOTA  *****

CITY           SKY/WX    TMP DP  RH WIND       PRES   REMARKS
SIOUX FALLS    FAIR      -5  -9  83 CALM      30.53R
BROOKINGS      FAIR      -9 -14  78 MISG        N/A
WATERTOWN      FAIR     -10 -13  86 CALM      30.46R
HURON          FAIR      -9 -13  83 SE5       30.52R WCI -20
SISSETON         N/A      0 -10  63 NW9       30.46R WCI -15
ABERDEEN       FAIR     -19 -23  81 S7        30.49R WCI -36
MITCHELL       FAIR      -4 -10  75 S5        30.55R WCI -15
PIERRE         FAIR      -8 -13  78 W8        30.44F WCI -24
MOBRIDGE       FAIR     -12 -18  74 NE3       30.39R
RAPID CITY     FAIR     -11 -15  82 NW5       30.26F WCI -23
$$

  *****  SOME WEATHER IN NEARBY STATES *****

CITY           SKY/WX    TMP DP  RH WIND       PRES   REMARKS
GLASGOW MT     FAIR     -12 -15  86 E5        30.25S WCI -24
GREAT FALLS MT FAIR      -5 -11  75 SW6       30.07F WCI -18
CHEYENNE WY    FAIR       1  -2  87 W5        30.12R WCI  -9
SCOTTSBLUFF NE FAIR     -10 -16  74 N3        30.28R
OMAHA NE       MOCLDY     9   4  80 N5        30.62S WCI   1
DES MOINES IA  CLOUDY    13   6  74 N10       30.62R WCI   0
DAVENPORT IA   FAIR      21  13  71 NW13      30.57R WCI   9
CHICAGO IL     CLOUDY    27  19  72 N10       30.46R WCI  17
EAU CLAIRE WI  FAIR       2  -2  83 W3        30.54R
LA CROSSE WI   FAIR      11   5  77 NW5       30.60R WCI   3
$$

  *****  SOME NATIONAL WEATHER *****

CITY           SKY/WX    TMP DP  RH WIND       PRES   REMARKS
LA GUARDIA NY  CLOUDY    61  57  87 SW9       30.29F
RALEIGH NC     CLOUDY    66  64  93 SW9       30.48R
ATLANTA GA     DRIZZLE   68  67  96 S10       30.40R
NEW ORLEANS LA FAIR      73  72  96 SE12      30.22R
OKLAHOMA CITY  CLOUDY    21  17  84 N20G26    30.39F WCI   6
ALBUQUERQUE NM MOCLDY    31  19  61 N5        30.12R
SALT LAKE CITY MOCLDY    19   8  62 S8        30.14S WCI   9
LOS ANGELES CA MOCLDY    47  23  38 E5        30.11R
BOISE ID       CLOUDY    23   5  46 SE12      30.13R WCI  12
SEATTLE WA     FAIR      28  13  53 E12       30.30F WCI  18
$$

*** WEATHER ACROSS MANITOBA...SASKATCHEWAN AND ONTARIO ***
                ***ONTARIO***

CITY           SKY/WX    TMP DP  RH WIND       PRES   REMARKS
GERALDTON      NOT AVBL
THUNDER BAY    NOT AVBL
SIOUX LOOKOUT  NOT AVBL
TORONTO        NOT AVBL
BIG TROUT LK   NOT AVBL
PICKLE LAKE    NOT AVBL
DRYDEN         NOT AVBL
KENORA         NOT AVBL
$$
                *** MANITOBA***

CITY           SKY/WX    TMP DP  RH WIND       PRES   REMARKS
BRANDON        NOT AVBL
DAUPHIN        NOT AVBL
ISLAND LAKE    NOT AVBL
PILOT MOUND    NOT AVBL
THE PAS        NOT AVBL
THOMPSON       NOT AVBL
WINNIPEG       NOT AVBL
$$
                ***SASKATCHEWAN***

CITY           SKY/WX    TMP DP  RH WIND       PRES   REMARKS
ESTEVAN        NOT AVBL
KINDERSLEY     NOT AVBL
LLOYDMINSTER   NOT AVBL
PRINCE ALBERT  NOT AVBL
REGINA         NOT AVBL
YORKTON        NOT AVBL
N. BATTLEFORD  NOT AVBL
LA RONGE       NOT AVBL
SASKATOON      NOT AVBL
SWIFT CURRENT  NOT AVBL
$$
NOTE: THESE ARE AUTOMATED STATIONS WITH LIMITED QUALITY CONTROL
      "FAIR" INDICATES FEW OR NO CLOUDS BELOW 12,000 FEET WITH NO
      SIGNIFICANT WEATHER AND/OR OBSTRUCTIONS TO VISIBILITY.
      SKY/WX - SKY CONDITION AND SIGNIFICANT WEATHER.
      TMP - AIR TEMPERATURE.    DP   - DEWPOINT TEMPERATURE.
      RH  - RELATIVE HUMIDITY.  PRES - PRESSURE.
      HX  - HEAT INDEX.         WCI  - WIND CHILL INDEX.
$




USA.gov is the U.S. government's official web portal to all federal, state and local government web resources and services.